Theta_e
299 291 288 292 295 294 290 287 289 291 297 294 294 295 297 301 300 299 300 300 300 302 306 307 310 310 312 314 313 312 311 317 322 324 325 327 328 330 331 332 333 332 331 331
294 288 293 295 295 294 292 288 286 292 295 293 292 291 294 296 297 298 299 300 301 302 302 306 308 309 311 311 311 311 310 311 318 321 324 326 327 328 329 331 332 332 331 332
290 293 297 294 291 290 290 288 287 286 291 292 290 288 291 294 296 298 300 300 300 301 301 302 303 305 306 307 308 309 311 311 312 316 322 323 324 324 325 326 326 329 332 332
293 296 294 292 290 290 286 292 292 289 285 280 290 278 285 288 292 295 297 296 297 299 301 301 302 302 305 308 310 311 312 312 313 315 319 320 319 319 321 325 328 329 332 331
290 292 291 290 290 292 288 292 291 290 286 284 284 279 283 288 287 290 294 297 298 299 300 301 301 306 306 309 310 312 313 314 314 313 313 317 319 320 322 322 324 327 329 329
293 298 294 293 294 294 293 290 289 288 286 278 284 282 282 285 287 290 294 296 298 299 300 302 303 305 306 309 310 314 313 311 311 313 314 315 316 320 320 321 323 325 326 327
291 292 294 296 290 293 291 287 277 275 277 275 285 282 284 289 290 291 291 294 296 299 302 300 301 301 303 304 306 308 305 303 303 303 303 306 307 307 308 312 312 313 310 307
284 282 291 295 291 288 289 287 279 271 274 277 286 279 284 293 295 295 295 294 297 300 301 299 299 299 299 300 301 302 300 298 299 298 299 300 301 301 301 301 301 300 300 300
283 283 293 294 294 293 288 285 290 282 279 276 280 284 289 293 291 292 293 295 294 298 297 296 297 296 295 295 296 297 297 297 297 296 297 297 298 298 297 297 298 297 297 298
287 281 290 292 294 293 290 292 283 284 269 268 277 277 281 287 289 292 292 293 295 297 296 295 294 293 293 292 292 293 293 293 294 294 295 295 294 295 294 294 293 294 294 295
291 286 285 291 288 286 287 287 288 286 282 276 274 277 287 288 291 292 292 294 295 295 294 293 292 291 291 290 290 289 290 290 291 292 293 292 291 291 291 290 290 290 291 291
291 287 282 285 292 294 291 288 288 281 279 282 281 279 291 292 293 293 293 295 296 296 294 292 290 289 288 287 287 287 287 287 289 290 288 287 287 287 286 286 286 287 287 288
291 285 279 282 286 291 288 289 290 289 285 281 278 280 292 292 292 293 292 294 294 294 291 290 289 288 286 285 285 284 284 285 286 286 284 284 283 283 283 284 284 285 285 285
294 286 283 278 281 286 284 287 289 287 282 282 282 284 288 289 290 291 293 295 293 292 291 289 288 287 286 284 282 282 282 283 283 283 282 282 282 282 282 282 283 283 283 283
288 283 284 285 286 286 286 286 287 286 286 282 284 285 289 291 291 291 293 294 293 292 290 288 287 285 283 282 281 281 281 281 281 280 280 280 281 281 281 281 282 282 282 282
286 280 284 281 285 285 283 286 287 288 288 287 287 285 292 294 294 292 293 294 292 292 290 289 287 285 283 282 280 281 280 280 280 279 279 280 280 280 279 280 279 280 280 280
285 282 275 276 283 283 279 283 285 286 288 288 284 289 294 293 294 293 293 293 293 292 291 288 286 284 281 280 280 278 278 279 279 278 278 278 278 278 278 278 278 277 277 278
282 282 282 277 279 272 282 289 289 287 288 290 290 291 293 294 296 297 296 294 293 291 289 287 284 281 279 279 278 278 278 278 278 277 277 277 276 276 277 277 276 276 276 276
287 284 279 277 275 279 281 285 286 285 285 290 289 291 292 294 295 293 294 296 295 292 291 287 283 279 278 278 277 277 277 277 276 275 275 275 275 275 275 275 274 274 275 275
285 285 280 278 274 271 280 286 289 289 280 290 291 291 291 292 286 290 295 292 291 288 284 280 278 277 277 276 277 276 275 275 274 273 273 274 274 274 273 273 273 274 274 274
277 278 277 278 275 279 285 286 289 279 281 290 291 292 291 289 292 292 284 281 282 280 278 277 276 275 275 276 276 275 274 272 272 272 272 272 272 272 272 272 273 273 273 273
277 276 276 278 276 273 286 285 283 286 285 282 281 281 284 286 284 281 278 277 276 275 275 275 274 274 275 277 275 273 271 272 271 270 270 270 270 271 271 271 271 271 272 271
277 282 279 281 279 283 279 279 277 278 278 277 277 278 280 279 277 278 276 275 275 274 274 274 272 272 273 274 274 270 269 270 269 269 268 269 269 270 270 269 269 269 269 268
282 283 280 281 283 281 280 277 276 276 276 276 276 277 277 277 276 275 274 274 274 273 272 272 271 269 268 269 270 269 269 268 268 267 267 268 268 267 268 268 268 268 267 266
282 280 278 279 283 279 281 277 276 275 275 276 276 277 276 276 275 274 273 272 272 272 271 271 269 268 267 267 267 267 267 267 267 266 266 266 266 266 266 267 267 267 268 268
279 280 279 280 279 279 278 275 277 275 274 275 274 274 276 276 274 273 271 271 270 270 270 269 268 267 267 266 264 264 264 264 264 264 264 263 264 264 265 264 264 268 268 269
Wind_Speed
8 5 11 13 13 12 6 3 9 8 7 3 9 15 12 10 8 9 9 8 8 8 7 5 4 5 6 6 5 5 5 7 5 4 4 4 6 4 4 5 9 12 11 10
6 15 10 10 10 13 14 7 8 5 4 3 6 16 12 11 11 12 10 11 12 8 8 7 9 9 8 9 8 7 7 6 5 5 4 5 4 4 4 4 5 11 12 12
14 4 19 13 12 13 13 11 7 5 3 2 7 14 14 14 22 18 14 11 8 10 9 8 8 8 7 8 9 8 6 6 7 7 4 3 3 2 3 3 3 4 10 10
14 19 10 15 15 10 13 6 9 7 1 4 10 9 6 5 13 19 18 10 10 10 8 7 7 5 3 5 6 5 4 5 6 7 5 7 5 5 4 5 7 7 8 8
8 10 19 15 16 8 6 5 9 6 7 6 9 6 7 9 6 4 11 9 9 10 9 8 3 8 7 8 6 4 4 6 7 5 3 3 5 3 3 3 6 6 5 5
18 5 8 16 9 11 4 3 1 2 1 8 12 11 10 11 8 7 9 11 10 9 7 8 8 8 8 6 5 5 7 6 9 9 7 4 4 5 3 2 3 3 3 1
13 19 5 5 13 10 9 8 2 1 4 9 9 13 17 10 3 2 3 7 9 9 9 9 8 7 7 5 4 5 7 8 7 8 10 9 9 9 9 7 6 7 5 5
10 11 16 9 9 6 18 17 6 10 6 3 13 12 7 11 13 8 8 5 7 9 8 9 9 7 7 6 7 7 7 7 7 8 9 9 10 7 7 9 7 6 5 6
14 12 7 16 10 15 12 20 12 6 3 3 6 6 4 7 3 4 8 7 7 8 9 10 9 7 6 6 7 7 7 7 7 7 9 10 10 11 9 10 9 7 8 7
5 4 10 14 14 15 13 10 11 8 4 5 7 6 9 4 7 7 8 7 7 8 9 9 8 7 6 6 7 8 8 7 7 7 7 9 9 10 9 9 9 9 8 9
11 10 4 14 15 17 15 14 7 6 8 5 3 8 10 12 11 12 10 10 10 12 10 9 8 7 7 6 7 7 7 7 7 7 7 9 9 9 9 9 9 8 8 9
25 11 16 16 13 19 23 22 22 8 13 9 12 8 5 9 7 6 7 8 11 14 12 10 10 9 7 7 6 6 6 6 6 7 8 9 9 8 9 8 8 8 8 8
16 15 10 11 6 14 18 19 18 18 5 11 11 11 12 10 6 4 1 8 9 9 10 9 8 7 7 7 6 7 6 6 6 8 8 8 8 7 8 8 7 7 7 8
15 13 16 20 16 7 9 17 22 20 15 20 16 21 15 8 8 6 7 9 10 11 12 9 8 8 8 7 7 7 5 5 6 7 7 7 7 7 7 6 7 6 6 7
8 13 20 23 22 20 10 19 25 24 25 18 23 25 23 17 11 9 10 9 11 12 14 14 11 9 8 7 7 6 6 6 6 7 7 6 5 6 5 5 6 4 6 7
12 9 8 16 21 23 23 19 16 18 23 24 25 23 22 19 14 10 9 12 12 14 15 13 12 12 10 9 7 7 6 5 6 6 7 5 6 5 5 5 5 5 5 5
3 5 4 14 19 20 18 23 26 24 18 23 22 27 26 26 22 16 11 12 17 17 15 15 15 14 10 9 9 7 7 6 7 7 6 5 5 5 4 5 6 7 7 5
6 7 8 12 9 20 10 21 23 25 26 22 22 22 22 23 29 21 11 13 16 13 13 14 14 13 13 9 9 8 7 7 7 7 7 4 6 6 6 6 7 7 5 6
19 10 6 10 11 17 9 10 17 19 27 22 22 25 26 25 22 19 9 15 19 18 20 15 14 15 15 13 10 9 8 7 8 7 6 6 5 7 6 6 8 5 5 5
13 8 6 6 11 15 11 20 16 10 11 17 22 25 27 24 16 18 14 8 10 9 13 16 16 14 14 10 10 10 9 8 8 6 6 5 6 7 7 6 8 6 6 7
4 5 12 14 10 2 8 11 2 12 14 20 18 23 20 19 19 14 10 11 11 16 18 17 15 13 13 11 10 10 9 9 8 6 6 6 6 7 7 7 5 6 6 6
7 5 4 4 5 5 8 3 12 14 4 1 1 2 5 6 2 8 12 15 16 18 16 14 14 12 10 9 10 10 9 8 7 6 7 6 6 6 7 4 4 4 3 3
8 8 4 8 8 3 4 1 3 1 2 2 0 2 3 6 4 10 13 14 14 15 14 12 14 13 8 8 10 10 9 7 6 6 7 6 6 5 2 2 3 2 3 2
5 1 3 3 8 6 5 4 4 3 2 2 2 2 3 8 9 11 11 14 13 13 14 14 14 13 11 9 11 10 8 6 5 6 6 5 4 3 3 2 2 1 1 2
4 1 1 7 12 6 10 6 2 3 3 5 3 2 6 12 11 15 12 10 12 12 12 13 13 12 12 11 10 7 6 6 6 5 5 5 3 2 2 1 1 2 3 4
7 7 5 13 3 4 3 6 5 7 6 5 5 5 5 9 15 14 12 10 11 12 12 13 13 12 11 11 10 7 5 4 3 5 4 3 2 1 1 1 1 5 7 8
Wind_Direction
200 196 202 203 214 241 248 332 232 260 147 162 235 261 256 245 223 217 238 264 256 243 231 230 224 230 195 175 192 211 213 210 174 175 187 198 214 202 200 200 191 192 195 221
190 228 218 221 230 226 254 243 275 232 54 83 281 277 271 257 249 241 222 215 227 247 261 218 198 204 198 197 203 210 227 235 209 182 191 193 193 205 192 192 204 187 192 197
219 198 204 230 225 232 234 238 236 268 112 240 293 273 241 238 240 241 234 234 236 223 225 240 234 222 210 201 197 201 211 225 225 215 191 196 197 166 166 203 219 208 197 195
230 238 232 216 237 213 236 207 257 254 253 256 147 288 287 254 230 230 234 228 237 241 247 241 254 260 109 73 54 31 3 294 248 236 197 192 190 198 206 185 200 203 209 181
210 198 219 227 217 214 234 254 222 233 266 317 266 287 275 211 262 202 190 203 233 230 222 228 192 94 70 45 21 336 296 280 285 291 272 210 208 195 201 211 193 171 150 172
234 204 209 226 185 199 192 247 112 79 247 252 221 211 236 230 208 211 199 200 203 217 212 110 97 91 76 53 32 20 68 54 32 26 11 311 237 211 197 265 151 131 123 160
226 223 177 247 187 186 192 172 145 207 203 234 172 208 246 280 253 195 199 224 197 192 151 125 125 103 86 75 69 66 60 46 38 48 42 38 57 59 60 53 47 50 42 35
186 206 198 198 204 187 198 196 165 187 197 241 194 233 243 216 245 259 164 195 197 151 138 116 105 102 92 80 64 71 71 65 53 59 62 59 60 67 68 65 70 67 64 53
200 230 151 176 186 190 188 215 229 324 163 100 245 274 260 126 171 157 162 168 197 125 106 110 109 109 105 86 74 77 77 69 64 64 72 66 66 69 72 66 65 62 49 45
236 241 197 183 192 229 185 160 205 220 207 238 244 244 235 185 190 190 206 205 188 132 123 122 115 111 99 90 77 67 65 66 60 52 66 69 68 68 68 65 58 56 48 42
224 237 205 162 195 190 207 205 214 181 222 190 246 247 193 217 202 198 196 196 167 138 138 137 129 121 113 102 92 77 68 65 60 55 58 63 56 56 59 59 50 44 44 38
210 223 232 226 196 203 203 206 203 192 208 226 258 251 137 91 34 56 206 204 146 148 146 136 134 134 136 124 105 94 80 71 65 61 62 57 55 53 54 52 47 40 41 31
200 212 219 218 227 221 217 216 210 230 289 209 216 259 225 266 181 176 121 113 128 135 131 136 136 145 136 124 107 87 74 70 60 66 64 55 53 56 53 49 44 44 45 41
219 213 225 228 227 156 199 223 222 222 231 240 241 262 249 254 272 240 180 144 156 152 152 155 156 156 139 131 121 115 95 78 79 74 72 64 56 54 59 53 48 40 55 53
313 222 223 238 247 250 213 210 211 216 226 225 238 246 259 250 240 231 185 172 151 164 168 173 167 148 133 126 118 109 100 86 86 88 81 74 67 55 48 44 50 48 56 53
171 273 294 238 234 238 250 239 234 239 240 241 246 251 259 261 253 247 196 176 171 188 188 175 159 148 151 146 135 128 120 107 99 98 92 83 86 77 57 46 28 21 37 48
199 165 218 263 237 240 241 241 252 247 222 236 243 244 251 263 265 258 249 171 193 196 181 173 168 162 146 138 137 131 124 118 110 105 96 93 90 81 70 61 38 24 7 22
256 232 234 258 262 253 230 240 238 242 246 239 239 244 248 248 253 253 241 190 203 184 171 173 161 146 139 131 121 121 125 120 117 109 97 55 73 72 44 60 59 30 358 358
219 222 246 240 235 254 288 217 210 226 245 241 245 252 250 249 258 255 210 194 195 184 185 170 148 137 131 135 138 134 122 115 110 106 100 89 78 68 64 40 56 28 352 2
197 223 216 243 227 232 238 256 244 237 251 237 234 239 245 250 254 260 239 172 177 137 130 134 129 126 122 128 128 131 123 114 109 104 95 77 70 58 55 28 37 24 7 356
188 214 231 238 243 223 248 249 118 198 236 248 228 235 237 240 237 256 92 74 104 120 120 119 119 123 127 129 135 134 124 118 112 98 84 69 57 65 50 30 20 32 8 337
184 185 193 232 273 241 210 104 174 219 164 70 23 77 249 300 159 122 118 119 116 118 117 118 114 115 117 131 131 116 106 101 89 87 84 69 52 44 44 12 26 21 360 317
235 205 226 194 211 246 3 324 18 37 139 97 248 325 262 126 125 132 129 120 119 120 118 114 114 111 99 110 117 120 114 111 107 108 90 74 70 67 67 39 46 51 360 351
282 152 229 26 252 248 233 208 186 200 135 116 253 226 126 127 124 114 117 125 123 123 123 119 118 116 103 83 97 109 116 118 118 110 105 105 101 109 77 58 41 60 18 29
208 53 258 263 282 303 248 230 208 168 157 148 111 166 130 129 137 131 130 130 124 123 121 125 127 126 125 121 115 120 122 139 134 127 116 106 98 74 77 80 352 20 21 1
167 200 213 262 184 220 227 309 205 171 183 156 139 126 113 158 140 129 129 134 132 129 132 132 126 128 131 130 126 115 102 104 109 114 104 89 90 75 79 42 358 6 6 356